Weather History for Valparaiso, FL

Change the Weather History Date:

Saturday, January 21, 2012

  Actual Average Record
Temperature  
Mean Temperature 66 °F -  
Max Temperature 71 °F 59 °F 78 °F (1952)
Min Temperature 62 °F 36 °F 4 °F (1985)
Cooling Degree Days 2    
Growing Degree Days 16 (Base 50)    
Moisture  
Dew Point 66 °F    
Average Humidity 96    
Maximum Humidity 100    
Minimum Humidity 83    
Precipitation  
Precipitation 0.00 in - - ()
Sea Level Pressure  
Sea Level Pressure 30.02 in    
Wind  
Wind Speed 9 mph (SW)    
Max Wind Speed 17 mph    
Max Gust Speed 28 mph    
Visibility 8 miles    
Events Rain    
Averages and records for this station are not official NWS values.
T = Trace of Precipitation, MM = Missing Value Source: NWS Daily Summary

Daily Weather History Graph

Daily Weather History Graph

Search for Another Location

Airport:

Trip Planner

Search our weather history database for the weather conditions in past years. The results will help you decide how hot, cold, wet, or windy it might be!

Date:

Astronomy

Jan. 21, 2012 Rise Set
Actual Time 6:42 AM CST 5:12 PM CST
Civil Twilight 6:16 AM CST 5:38 PM CST
Nautical Twilight 5:47 AM CST 6:07 PM CST
Astronomical Twilight 5:18 AM CST 6:36 PM CST
Moon 5:09 AM CST (1/21) 3:50 PM CST (1/21)
Length of Visible Light 11h 21m
Length of Day
10h 30m
Waning Crescent, 3% of the Moon is Illuminated
Jan 21
Waning Crescent
Jan 23
New
Jan 30
First Quarter
Feb 7
Full
Feb 14
Last Quarter

Hourly Weather History & Observations

Time (CST) Temp. Dew Point Humidity Pressure Visibility Wind Dir Wind Speed Gust Speed Precip Events Conditions
12:56 AM 64.0 °F 63.3 °F 97% 30.06 in 10.0 mi South 9.2 mph - N/A   Mostly Cloudy
1:56 AM 63.3 °F 62.8 °F 98% 30.04 in 10.0 mi South 6.9 mph - N/A   Mostly Cloudy
2:56 AM 62.4 °F 62.4 °F 100% 30.04 in 10.0 mi South 5.8 mph - N/A   Partly Cloudy
3:55 AM 62.8 °F 62.8 °F 100% 30.03 in 10.0 mi South 8.1 mph - N/A   Partly Cloudy
4:55 AM 63.3 °F 63.3 °F 100% 30.04 in 10.0 mi SSW 5.8 mph - N/A   Clear
5:57 AM 63.7 °F 63.7 °F 100% 30.03 in 10.0 mi South 9.2 mph - N/A   Mostly Cloudy
6:01 AM 64.4 °F 64.4 °F 100% 30.01 in 10.0 mi South 8.1 mph - N/A   Mostly Cloudy
6:47 AM 64.4 °F 64.4 °F 100% 30.02 in 10.0 mi Variable 5.8 mph - N/A   Mostly Cloudy
6:55 AM 64.2 °F 64.2 °F 100% 30.04 in 10.0 mi SW 6.9 mph - N/A   Mostly Cloudy
7:55 AM 64.4 °F 64.4 °F 100% 30.06 in 10.0 mi SSW 9.2 mph - N/A   Mostly Cloudy
8:22 AM 64.4 °F 64.4 °F 100% 30.03 in 10.0 mi SSW 8.1 mph - N/A   Mostly Cloudy
8:55 AM 65.1 °F 65.1 °F 100% 30.05 in 7.0 mi SSW 10.4 mph - N/A   Mostly Cloudy
9:55 AM 67.5 °F 65.1 °F 92% 30.07 in 7.0 mi SW 8.1 mph - N/A   Mostly Cloudy
10:55 AM 69.6 °F 65.7 °F 87% 30.05 in 7.0 mi SSW 13.8 mph - N/A   Mostly Cloudy
11:55 AM 70.7 °F 65.7 °F 84% 30.01 in 7.0 mi SSW 15.0 mph 24.2 mph N/A   Mostly Cloudy
12:20 PM 69.8 °F 66.2 °F 88% 29.99 in 7.0 mi SSW 16.1 mph 27.6 mph N/A   Mostly Cloudy
12:55 PM 70.3 °F 65.5 °F 85% 29.99 in 7.0 mi SW 16.1 mph 24.2 mph N/A   Mostly Cloudy
1:55 PM 70.7 °F 65.5 °F 83% 29.98 in 7.0 mi SSW 15.0 mph 21.9 mph N/A   Scattered Clouds
2:20 PM 71.6 °F 66.2 °F 83% 29.98 in 7.0 mi SSW 15.0 mph 19.6 mph N/A   Mostly Cloudy
2:43 PM 71.6 °F 66.2 °F 83% 29.98 in 10.0 mi SSW 12.7 mph - N/A   Mostly Cloudy
2:55 PM 70.7 °F 65.7 °F 84% 29.99 in 7.0 mi SSW 17.3 mph 20.7 mph N/A   Mostly Cloudy
3:55 PM 68.5 °F 65.8 °F 91% 29.99 in 7.0 mi SW 11.5 mph - N/A   Mostly Cloudy
4:24 PM 68.0 °F 66.2 °F 94% 29.99 in 10.0 mi SW 8.1 mph - N/A   Mostly Cloudy
4:37 PM 68.0 °F 66.2 °F 94% 29.98 in 10.0 mi SSW 9.2 mph - N/A   Mostly Cloudy
4:55 PM 67.1 °F 65.8 °F 96% 29.99 in 10.0 mi SSW 12.7 mph - N/A   Mostly Cloudy
5:30 PM 66.2 °F 66.2 °F 100% 29.99 in 10.0 mi SW 6.9 mph - N/A   Mostly Cloudy
5:55 PM 66.9 °F 66.6 °F 99% 30.00 in 5.0 mi SW 8.1 mph - N/A   Mostly Cloudy
6:55 PM 67.3 °F 67.3 °F 100% 30.00 in 6.0 mi SW 10.4 mph - N/A   Mostly Cloudy
7:55 PM 67.5 °F 67.5 °F 100% 30.02 in 10.0 mi SW 8.1 mph - N/A   Scattered Clouds
8:06 PM 68.0 °F 68.0 °F 100% 30.01 in 5.0 mi SW 6.9 mph - N/A   Mostly Cloudy
8:20 PM 68.0 °F 68.0 °F 100% 30.01 in 4.0 mi SW 4.6 mph - N/A   Mostly Cloudy
8:55 PM 67.3 °F 67.3 °F 100% 30.03 in 4.0 mi SW 6.9 mph - N/A   Mostly Cloudy
9:20 PM 68.0 °F 68.0 °F 100% 30.02 in 3.0 mi SW 6.9 mph - N/A   Overcast
9:55 PM 67.3 °F 67.3 °F 100% 30.02 in 10.0 mi SW 6.9 mph - N/A   Overcast
10:19 PM 68.0 °F 68.0 °F 100% 30.02 in 8.0 mi Calm Calm - N/A Rain Light Rain
10:28 PM 68.0 °F 68.0 °F 100% 30.02 in 8.0 mi WSW 5.8 mph - N/A   Overcast
10:55 PM 67.1 °F 67.1 °F 100% 30.03 in 5.0 mi WSW 2.3 mph - 0.00 in   Mostly Cloudy
11:11 PM 66.2 °F 66.2 °F 100% 30.02 in 4.0 mi SW 3.5 mph - N/A   Mostly Cloudy
11:21 PM 66.2 °F 66.2 °F 100% 30.02 in 4.0 mi SW 4.6 mph - N/A   Mostly Cloudy
11:48 PM 66.2 °F 66.2 °F 100% 30.02 in 4.0 mi WSW 3.5 mph - N/A   Overcast
11:55 PM 66.2 °F 66.2 °F 100% 30.02 in 4.0 mi SW 4.6 mph - N/A   Overcast